Location: Czekanka
(50.4925°N, 19.2643°E)
Time: 20:49:27
(UTC+00:00)

BREEZE-M R/B - Visible Passes

Search period start: 13 September 2024 00:00
Search period end: 23 September 2024 00:00
Orbit: 1086 x 14771 km, 50.7° (Epoch: 12 September)

Date Brightness Start Highest point End Pass type
(mag) Time Alt. Az. Time Alt. Az. Time Alt. Az.
13 Sep 6.5 17:15:04 10° WNW 17:33:52 44° SW 17:40:55 10° SSE visible
19 Sep 9.7 04:12:02 10° SE 05:06:35 21° E 05:34:53 10° ENE visible
20 Sep 9.9 03:57:51 10° ESE 04:44:55 19° E 05:11:20 10° ENE visible
21 Sep 10.0 03:44:54 10° ESE 04:23:25 16° E 04:47:05 10° ENE visible
22 Sep 10.2 03:33:46 10° ESE 04:02:04 14° E 04:21:33 10° ENE visible
